Tracking 28126 objects as of 2-Oct-2023
HD Live streaming from Space Station
objects crossing your sky now

INTELSAT 3-F4

Track INTELSAT 3-F4 now!
INTELSAT 3-F4 is classified as:


NORAD ID: 3947
Int'l Code: 1969-045A
Perigee: 38,832.3 km
Apogee: 39,025.4 km
Inclination: 6.5 °
Period: 1,599.2 minutes
Semi major axis: 45299 km
RCS: 2.5125 m2 (large)
Launch date: May 22, 1969
Source: International Telecommunications Satellite Organization (ITSO)
Launch site: AIR FORCE EASTERN TEST RANGE (AFETR)
Your satellite tracking list
Your tracking list is empty




NASA's NSSDC Master Catalog

Two Line Element Set (TLE):
1 03947U 69045A   23274.54662462 -.00000112  00000-0  00000-0 0  9995
2 03947   6.4682 293.0276 0021321  62.2818  86.6289  0.90044612 57058
Source of the keplerian elements: AFSPC